AO-07 1 07530U 74089B 24095.58617882 -.00000015 00000-0 19861-3 0 9993 2 07530 101.9775 89.5500 0011945 223.7228 258.4271 12.53673862259817 UO-11 1 14781U 84021B 24095.45007774 .00001663 00000-0 19486-3 0 9997 2 14781 97.6982 66.9875 0007133 331.1855 28.8966 14.86299428137536 AO-16 1 20439U 90005D 24095.55929104 .00000237 00000-0 10283-3 0 9996 2 20439 98.9016 98.6215 0011795 69.9098 44.9257 14.33319269786786 LO-19 1 20442U 90005G 24095.51690593 .00000257 00000-0 10981-3 0 9990 2 20442 98.8799 83.8628 0012524 45.7334 314.4874 14.33477991787224 AO-27 1 22825U 93061C 24095.60442958 .00000130 00000-0 67433-4 0 9997 2 22825 98.7974 147.5849 0007382 297.3138 62.7292 14.30451987592091 IO-26 1 22826U 93061D 24095.74234915 .00000147 00000-0 73564-4 0 9995 2 22826 98.7920 147.5867 0007825 279.7438 80.2860 14.30828899592649 FO-29 1 24278U 96046B 24095.55043877 .00000001 00000-0 37075-4 0 9994 2 24278 98.5745 39.8736 0350587 19.1618 342.2337 13.53179072364479 NOAA-15 1 25338U 98030A 24095.80186670 .00000216 00000-0 10727-3 0 9996 2 25338 98.5767 124.4384 0010569 173.0021 187.1309 14.26527551346972 GO-32 1 25397U 98043D 24095.60226660 .00000134 00000-0 78272-4 0 9996 2 25397 98.9145 61.2576 0001900 46.0537 314.0798 14.24011027336945 ISS 1 25544U 98067A 24095.87797755 .00014496 00000-0 26216-3 0 9999 2 25544 51.6418 318.8626 0004720 38.4768 52.2804 15.49922952447172 NO-44 1 26931U 01043C 24095.55133217 .00000182 00000-0 10012-3 0 9994 2 26931 67.0506 161.7787 0005900 281.2130 78.8308 14.31167117175419 SO-50 1 27607U 02058C 24095.42064656 .00001421 00000-0 21133-3 0 9991 2 27607 64.5529 88.2141 0033256 146.9686 213.3505 14.78567262145410 CO-55 1 27844U 03031E 24095.55342852 .00000459 00000-0 22238-3 0 9994 2 27844 98.6801 103.6076 0009751 5.9710 354.1583 14.23148171 77315 CO-57 1 27848U 03031J 24095.52936684 .00000390 00000-0 19392-3 0 9998 2 27848 98.6830 103.8690 0010019 21.5118 338.6479 14.22606054 77117 RS-22 1 27939U 03042A 24095.90436931 .00001495 00000-0 26021-3 0 9997 2 27939 98.2811 251.0030 0011084 293.4555 188.8553 14.69567281 97518 NOAA-18 1 28654U 05018A 24095.78742715 .00000242 00000-0 15291-3 0 9999 2 28654 98.8768 173.3582 0013166 270.5910 89.3754 14.13160003972893 CO-58 1 28895U 05043F 24095.32840146 .00001893 00000-0 34468-3 0 9991 2 28895 98.1886 231.1266 0015244 227.5958 132.3957 14.67188211983626 CO-65 1 32785U 08021C 24095.51912607 .00005004 00000-0 45520-3 0 9995 2 32785 97.7477 61.5554 0010396 200.9679 159.1117 14.95611290864535 AAUSAT2 1 32788U 08021F 24095.69233192 .00015847 00000-0 88652-3 0 9991 2 32788 97.5914 75.9500 0008764 77.7630 282.4582 15.13514018867298 CO-66 1 32791U 08021J 24095.49984437 .00006226 00000-0 47988-3 0 9996 2 32791 97.6864 67.2179 0006432 157.3186 202.8323 15.01959187865456 RS-30 1 32953U 08025A 24095.83426275 .00000047 00000-0 26874-3 0 9995 2 32953 82.5006 135.1171 0018075 263.9853 95.9167 12.43138218720011 PRISM 1 33493U 09002B 24095.85980850 .00015006 00000-0 79462-3 0 9999 2 33493 98.2158 137.3575 0014416 137.3288 222.9064 15.15445050827930 NOAA-19 1 33591U 09005A 24095.87027678 .00000230 00000-0 14799-3 0 9998 2 33591 99.0553 150.8715 0014666 136.6071 223.6257 14.12961247781277 SRMSAT 1 37841U 11058D 24095.50412679 .00000480 00000-0 11806-3 0 9993 2 37841 19.9720 242.4251 0011902 5.0326 54.6796 14.11068779644142 HRBE 1 37855U 11061F 24095.64184235 .00099702 00000-0 12643-2 0 9995 2 37855 101.6861 234.3621 0067445 211.7591 147.9573 15.56341408681510 RS-40 1 38735U 12041C 24095.82850426 .00000014 00000-0 27936-4 0 9995 2 38735 82.4784 215.6011 0017204 22.4042 337.7786 12.42605770530165 ZACUBE-1 1 39417U 13066B 24095.45571504 .00003968 00000-0 42581-3 0 9990 2 39417 97.7268 53.1684 0053184 45.9187 314.6389 14.88128378560619 Delfi-N3xt 1 39428U 13066N 24095.51835210 .00006217 00000-0 81989-3 0 9991 2 39428 97.8390 15.8704 0102429 328.3022 31.2047 14.76790837555214 GOMX-1 1 39430U 13066Q 24095.70917592 .00001890 00000-0 32231-3 0 9997 2 39430 97.7438 334.5282 0142529 125.9741 235.4778 14.63585822552291 LO-74 1 39440U 13066AA 24095.55954598 .00002888 00000-0 35165-3 0 9995 2 39440 97.8073 40.9004 0071945 153.3132 207.1813 14.82348614557423 AO-73 1 39444U 13066AE 24095.41511988 .00005609 00000-0 56379-3 0 9990 2 39444 97.7120 56.0801 0050301 28.3881 332.0061 14.90687969559116 SPROUT 1 39770U 14029E 24095.83809075 .00062217 00000-0 22641-2 0 9997 2 39770 98.0072 241.8804 0001684 321.2219 38.8898 15.27996874536387 DTUSAT-2 1 40030U 14033W 24095.59530840 .00005534 00000-0 48542-3 0 9995 2 40030 98.0001 46.1982 0011205 48.3968 311.8211 14.97013913531682 EO-80 1 40032U 14033Y 24095.36577598 .00004332 00000-0 38064-3 0 9996 2 40032 98.0007 45.9767 0011619 48.9848 311.2376 14.97065818531621 HODOYOSHI-1 1 40299U 14070B 24095.85088268 .00017354 00000-0 38336-3 0 9997 2 40299 97.1487 157.0381 0006619 304.7895 55.2730 15.43893022523790 XW-2C 1 40906U 15049H 24095.76937245 .00019451 00000-0 52700-3 0 9998 2 40906 97.4855 110.9153 0008934 190.1596 169.9469 15.37660481473171 XW-2D 1 40907U 15049J 24095.82841214 .00028942 00000-0 65904-3 0 9991 2 40907 97.4805 112.8308 0008206 175.1145 185.0184 15.42879135473363 LILACSAT-2 1 40908U 15049K 24095.86119873 .00007044 00000-0 28798-3 0 9995 2 40908 97.5280 104.1224 0010910 242.8125 117.2001 15.24622083472315 XW-2B 1 40911U 15049N 24095.82418665 .00028295 00000-0 65613-3 0 9994 2 40911 97.4782 113.0206 0008212 177.2838 182.8455 15.42339096473230 IO-86 1 40931U 15052B 24006.28856983 .00001263 00000-0 84248-4 0 9993 2 40931 6.0004 76.3799 0013541 291.8204 68.0484 14.77555377447321 ChubuSat-2 1 41338U 16012B 24095.53510062 .00004224 00000-0 26749-3 0 9994 2 41338 31.0008 144.4795 0012006 216.5033 143.4786 15.07202550446471 ChubuSat-3 1 41339U 16012C 24095.51886883 .00003870 00000-0 24770-3 0 9998 2 41339 31.0073 142.6498 0011946 221.9687 138.0035 15.06744592446452 Horyu-4 1 41340U 16012D 24095.69411505 .00009391 00000-0 49668-3 0 9991 2 41340 31.0024 93.7815 0010544 300.9370 59.0233 15.14108476446994 e-st@r-II 1 41459U 16025D 24095.38067644 .00199816 00000-0 12597-2 0 9995 2 41459 98.1333 337.8133 0041920 137.3718 223.0810 15.74835961438017 Lapan A3 1 41603U 16040E 24095.81315758 .00003163 00000-0 13104-3 0 9998 2 41603 97.1478 112.8727 0012293 10.9896 349.1608 15.24537197432048 Pratham 1 41783U 16059A 24095.56022419 .00000807 00000-0 15945-3 0 9995 2 41783 97.8433 118.3447 0031224 253.3721 106.4054 14.64649774401762 CAS-2T 1 41847U 16066G 24095.43360321 .00001448 00000-0 21967-3 0 9990 2 41847 98.4654 167.2763 0355872 39.5801 323.0799 14.40961704388873 CAS-4B 1 42759U 17034B 24095.83974650 .00012685 00000-0 50404-3 0 9992 2 42759 43.0120 280.1711 0013114 229.9639 130.0062 15.25164529376197 CAS-4A 1 42761U 17034D 24095.84708170 .00012666 00000-0 50135-3 0 9998 2 42761 43.0149 278.5317 0012150 235.5842 124.3860 15.25305749376207 NIUSat 1 42766U 17036B 24095.57544205 .00276070 00000-0 11087-2 0 9995 2 42766 97.1065 130.7164 0005193 137.3031 222.8644 15.85751465378017 Aalto 1 1 42775U 17036L 24095.57824491 .00041566 00000-0 61235-3 0 9994 2 42775 97.1169 124.9611 0008289 115.7205 244.4906 15.55266845377623 URSA MAIOR 1 42776U 17036M 24095.59465669 .00073016 00000-0 76647-3 0 9993 2 42776 97.1136 128.0496 0007083 113.7082 246.4922 15.64100986377810 Max Valier Sat 1 42778U 17036P 24095.60288507 .00069777 00000-0 71813-3 0 9990 2 42778 97.1140 132.1595 0007141 119.1321 241.0654 15.64614876377994 D-SAT 1 42794U 17036AF 24095.49844306 .00007491 00000-0 54254-3 0 9995 2 42794 97.4919 80.0782 0110196 37.8239 323.0663 14.99425563369674 TechnoSat 1 42829U 17042E 24095.81971054 .00002268 00000-0 20759-3 0 9998 2 42829 97.3842 281.0415 0011986 326.4030 33.6431 14.95835705366208 AO-91 1 43017U 17073E 24095.57619344 .00005060 00000-0 32558-3 0 9999 2 43017 97.5900 333.7218 0216099 179.1263 181.0378 14.91533707344683 TianYi 2 1 43155U 18008A 24095.88104545 .00050050 00000-0 10030-2 0 9996 2 43155 97.2490 149.1577 0006276 345.6295 14.4775 15.46550202343525 Zhou Enlai 1 43156U 18008B 24095.85636710 .00070288 00000-0 11828-2 0 9999 2 43156 97.2527 150.2571 0003960 340.4356 19.6744 15.51480896343500 TianYi 6 1 43158U 18008D 24095.86075958 .00032486 00000-0 83951-3 0 9998 2 43158 97.2640 144.6828 0006226 3.8521 356.2772 15.39032498343162 S-Net D 1 43186U 18014G 24095.67258862 .00004325 00000-0 32124-3 0 9999 2 43186 97.5980 358.8362 0009257 253.7467 106.2741 15.03510422337450 S-Net B 1 43187U 18014H 24095.67453101 .00004444 00000-0 33001-3 0 9990 2 43187 97.5981 358.7823 0010189 248.9417 111.0719 15.03503338337457 S-Net A 1 43188U 18014J 24095.60723650 .00004300 00000-0 31940-3 0 9994 2 43188 97.5988 358.8232 0010000 249.8997 110.1153 15.03509765337446 S-Net C 1 43189U 18014K 24095.61019698 .00004531 00000-0 33624-3 0 9993 2 43189 97.5999 358.7585 0011998 242.4874 117.5133 15.03503763335998 Changshagaoxin 1 43669U 18083H 24095.63444457 .00179235 00000-0 12186-2 0 9992 2 43669 97.3358 132.2013 0005313 151.3561 208.7996 15.74378537302186 Ten-Koh 1 43677U 18084G 24095.41708357 .00002979 00000-0 27575-3 0 9999 2 43677 98.0511 246.8662 0013456 260.2800 99.6900 14.95266359295698 PO-101 1 43678U 18084H 24095.85575544 .00002226 00000-0 21001-3 0 9991 2 43678 98.0621 251.7595 0007903 274.1189 85.9127 14.94839107295960 QO-100 1 43700U 18090A 24095.50758351 .00000137 00000-0 00000+0 0 9996 2 43700 0.0162 235.0290 0001399 177.3078 349.5372 1.00274403 19869 MinXSS-2 1 43758U 18099A 24095.45002755 .00006997 00000-0 47011-3 0 9999 2 43758 97.5623 159.0226 0017376 206.2909 153.7439 15.06971855291672 AO-95 1 43770U 18099N 24095.10786008 .00006193 00000-0 44905-3 0 9992 2 43770 97.5546 154.5890 0013390 251.8749 108.1019 15.04216405291429 RANGE-B 1 43772U 18099Q 24095.44495422 .00007635 00000-0 50544-3 0 9996 2 43772 97.5325 158.1811 0006384 155.2712 204.8824 15.07593920291602 RANGE-A 1 43773U 18099R 24095.61793638 .00003432 00000-0 27033-3 0 9994 2 43773 97.5156 151.2311 0014818 225.0465 134.9559 15.01355247291392 MOVE-II 1 43780U 18099Y 24095.60190313 .00011040 00000-0 64018-3 0 9990 2 43780 97.5289 159.4389 0007051 221.0717 138.9984 15.12320704291791 SNUSat 2 1 43782U 18099AA 24095.41729968 .00004397 00000-0 32579-3 0 9999 2 43782 97.5234 154.4353 0015378 186.0108 174.0935 15.03530655291485 SnugLite 1 43784U 18099AC 24095.68820549 .00005350 00000-0 38568-3 0 9991 2 43784 97.5049 154.0914 0004914 180.3754 179.7469 15.04551179291588 ITASat 1 1 43786U 18099AE 24095.12645667 .00004795 00000-0 36006-3 0 9995 2 43786 97.5164 154.5190 0017071 242.9103 117.0381 15.02959489291447 EAGLET 1 1 43790U 18099AJ 24095.44384369 .00003851 00000-0 29883-3 0 9991 2 43790 97.5375 155.2699 0014266 223.2389 136.7717 15.01861526291207 ESEO 1 43792U 18099AL 24095.39697104 .00000922 00000-0 80400-4 0 9990 2 43792 97.5273 152.5393 0010969 217.4841 142.5619 14.99144790291143 CSIM 1 43793U 18099AM 24095.45351538 .00010394 00000-0 60274-3 0 9996 2 43793 97.5363 160.9543 0013767 201.6450 158.4201 15.12277175291620 JO-97 1 43803U 18099AX 24095.70702619 .00006370 00000-0 44536-3 0 9998 2 43803 97.5294 156.0765 0010550 187.1362 172.9717 15.05598995291636 Suomi 100 1 43804U 18099AY 24095.12629431 .00006544 00000-0 46448-3 0 9992 2 43804 97.5347 155.3175 0016640 191.0900 168.9962 15.04956208291531 CHOMPTT 1 43855U 18104G 24095.88158003 .00175196 00000-0 95137-3 0 9999 2 43855 85.0125 322.7761 0001635 254.8937 105.2155 15.79526663296016 ISAT 1 43879U 18111D 24095.69344637 .00008255 00000-0 53544-3 0 9999 2 43879 97.6249 1.8469 0011749 247.5197 112.4787 15.08289383286312 UWE-4 1 43880U 18111E 24095.70516677 .00006372 00000-0 42196-3 0 9997 2 43880 97.6168 2.0509 0015263 258.4696 101.4818 15.07574422286359 Sparrow 1 43881U 18111F 24095.68846116 .00008586 00000-0 55008-3 0 9994 2 43881 97.6331 3.6088 0008657 296.9940 63.0403 15.08757232286399 AISTechSat 3 1 44103U 19018AB 24095.60645445 .00433550 76808-4 11438-2 0 9997 2 44103 97.1885 162.7793 0006984 243.0147 117.0416 15.94699485279991 AISat 1 1 44104U 19018AC 24095.81536498 .00082038 00000-0 57467-3 0 9999 2 44104 97.3607 201.8817 0022104 251.8666 108.0191 15.73640117281250 Prox-1 1 44339U 19036A 24095.11428511 .00008213 00000-0 14611-2 0 9994 2 44339 24.0009 341.2656 0009003 257.0533 102.8956 14.64930197254369 SONATE 1 44400U 19038Q 24095.54636027 .00014938 00000-0 50620-3 0 9997 2 44400 97.7120 86.5628 0017363 15.9690 344.2094 15.30523236262809 BeeSat 9 1 44412U 19038AC 24094.92240573 .00110910 00000-0 12014-2 0 9999 2 44412 97.6853 95.9282 0004739 10.6412 349.4945 15.63181353263114 JAISAT-1 1 44419U 19038F 24095.51330522 .00100114 00000-0 11215-2 0 9993 2 44419 97.6834 97.6108 0004526 8.9562 351.1775 15.62353164263588 Taurus 1 1 44530U 19059C 24095.84506955 .00004303 00000-0 10334-2 0 9995 2 44530 98.5662 214.1893 0011322 273.1313 86.8587 14.53890578241101 Duchifat 3 1 44854U 19089C 24095.44371882 .00008659 00000-0 47703-3 0 9991 2 44854 36.9579 135.7911 0009508 205.9752 154.0517 15.13531082237087 OPS-SAT 1 44878U 19092F 24095.54538640 .00127655 00000-0 11595-2 0 9996 2 44878 97.4495 297.7536 0004443 165.1192 195.0200 15.67573442238958 TO-108 1 44881U 19093C 24095.86350191 .00001106 00000-0 14086-3 0 9990 2 44881 97.8311 174.0673 0014111 197.4820 162.5910 14.83438325232173 FloripaSat 1 1 44885U 19093G 24095.80034683 .00003784 00000-0 40684-3 0 9990 2 44885 97.8418 178.9964 0012973 192.6165 167.4730 14.89063504232447 RS-44 1 44909U 19096E 24095.85568142 .00000024 00000-0 54288-4 0 9997 2 44909 82.5221 153.5033 0216759 222.4138 136.0035 12.79728263199644 BY70-2 1 45857U 20042B 24095.88845939 .00052304 00000-0 29043-2 0 9995 2 45857 97.9093 185.6944 0005601 131.9518 228.2190 15.13518743203406 UPMSat 2 1 46276U 20061E 24095.44718116 .00009867 00000-0 33175-3 0 9998 2 46276 97.3049 162.6867 0001979 76.0064 284.1397 15.31010860198887 AmicalSat 1 46287U 20061R 24095.42861493 .00016776 00000-0 54704-3 0 9993 2 46287 97.3572 162.9329 0003186 134.1072 226.0432 15.31869933198252 SALSAT 1 46495U 20068K 24095.83901225 .00005844 00000-0 34586-3 0 9994 2 46495 97.8088 53.3962 0013578 196.7811 163.2971 15.11762864193222 AO-109 1 47311U 21002C 24095.86395007 .00390097 66179-4 12387-2 0 9993 2 47311 60.6639 347.2732 0014271 103.0274 257.2439 15.90679635179783 ExoCube 2 1 47319U 21002L 24095.44596549 .00231148 00000-0 10414-2 0 9996 2 47319 60.6634 354.2755 0017914 98.3553 261.9594 15.82846568179586 UVSQ-SAT 1 47438U 21006AB 24095.66825399 .00027357 00000-0 68937-3 0 9993 2 47438 97.3371 155.5801 0008405 122.8162 237.3895 15.39823177177392 YUSAT 1 1 47439U 21006AC 24095.41124345 .00051785 00000-0 90114-3 0 9994 2 47439 97.3350 158.4101 0006687 121.4117 238.7790 15.50597489177554 SOMP 2b 1 47445U 21006AJ 24095.87638339 .00027438 00000-0 73624-3 0 9999 2 47445 97.3337 154.3945 0008570 128.0429 232.1590 15.37890446177368 IDEASSat 1 47458U 21006AX 24095.41620951 .00019194 00000-0 54906-3 0 9996 2 47458 97.3442 154.6161 0008472 130.1843 230.0143 15.35970215177246 CubeSX-Sirius-HSE 1 47951U 21022V 24095.76513438 .00013290 00000-0 58048-3 0 9993 2 47951 97.4688 354.4765 0016776 43.2488 317.0062 15.22112481167392 CubeSX-HSE 1 47952U 21022W 24095.72361053 .00013433 00000-0 58510-3 0 9997 2 47952 97.4689 354.5144 0016654 42.6816 317.5710 15.22206437167399 KSU-Cubesat 1 47954U 21022Y 24095.70435871 .00014942 00000-0 60971-3 0 9997 2 47954 97.4696 355.5174 0015660 40.0666 320.1724 15.24405414167173 GRBAlpha 1 47959U 21022AD 24095.75842976 .00013143 00000-0 57082-3 0 9996 2 47959 97.4690 354.6852 0016497 42.7812 317.4705 15.22312415166225 Orbicraft-Zorkiy 1 47960U 21022AE 24095.77243315 .00014546 00000-0 60227-3 0 9995 2 47960 97.4730 355.7383 0015819 40.6877 319.5539 15.23919539166968 STECCO 1 47962U 21022AG 24095.79395968 .00054314 00000-0 12351-2 0 9992 2 47962 97.4695 2.7137 0008148 27.4816 332.6860 15.42781173166751 MO-110 1 47964U 21022AJ 24095.30649895 .00052047 00000-0 10728-2 0 9999 2 47964 97.4709 3.5305 0008533 23.0289 337.1340 15.45699801166751 TUBIN 1 48900U 21059X 24095.81350666 .00012409 00000-0 46742-3 0 9995 2 48900 97.6340 238.5198 0006850 346.8467 13.2592 15.27220713153714 LEDSAT 1 49069U 21073D 24095.74848088 .00011684 00000-0 51506-3 0 9998 2 49069 97.4434 167.5156 0021015 179.1928 180.9346 15.21756614145276 CUTE 1 49263U 21088D 24095.70323216 .00010304 00000-0 53195-3 0 9991 2 49263 97.5049 162.3338 0013767 339.4922 20.5757 15.16426725138492 TeikyoSat 4 1 49396U 21102B 24095.86664237 .00002134 00000-0 15912-3 0 9990 2 49396 97.4707 143.3718 0014303 159.8033 200.3762 15.03827987131739 Z-Sat 1 49399U 21102E 24095.88361823 .00004221 00000-0 28071-3 0 9999 2 49399 97.4410 144.7828 0021730 146.4969 213.7639 15.07493670131948 KOSEN 1 1 49402U 21102H 24095.86571330 .00004821 00000-0 29745-3 0 9993 2 49402 97.4339 145.9600 0020828 131.8552 228.4460 15.10196014132073 HO-113 1 50466U 21131B 24095.86717118 .00000631 00000-0 21665-3 0 9991 2 50466 98.5279 181.2919 0003820 2.1631 357.9573 14.39463893119459 Tevel-3 1 50988U 22002E 24095.81757974 .00058459 00000-0 10893-2 0 9998 2 50988 97.3880 169.0855 0004749 248.4586 111.6159 15.48627921123636 Tevel-8 1 50989U 22002F 24095.85252651 .00059568 00000-0 11145-2 0 9998 2 50989 97.3895 169.2085 0004694 246.3026 113.7732 15.48506043123636 Tevel-5 1 50998U 22002Q 24095.82165173 .00068365 00000-0 11547-2 0 9998 2 50998 97.3865 170.0760 0005431 241.3203 118.7504 15.51377502123705 Tevel-6 1 50999U 22002R 24095.82395939 .00067356 00000-0 11413-2 0 9995 2 50999 97.3861 170.0574 0005388 241.5017 118.5693 15.51291619123702 Tevel-1 1 51013U 22002AF 24095.84102027 .00058319 00000-0 10915-2 0 9994 2 51013 97.3871 168.9884 0004667 248.5217 111.5537 15.48501891123633 IRIS-A 1 51044U 22002BN 24095.73250712 .00012558 00000-0 46084-3 0 9993 2 51044 97.3920 162.6648 0005200 291.3070 68.7614 15.28080958123192 Tevel-7 1 51062U 22002CG 24095.84494945 .00059893 00000-0 11166-2 0 9998 2 51062 97.3892 169.1741 0004795 247.9286 112.1456 15.48606446123635 Tevel-4 1 51063U 22002CH 24095.80794421 .00060562 00000-0 11392-2 0 9993 2 51063 97.3892 169.0623 0004695 248.4982 111.5768 15.48346907123623 Tevel-2 1 51069U 22002CP 24095.81661734 .00057682 00000-0 10736-2 0 9990 2 51069 97.3878 169.0518 0004750 248.0209 112.0537 15.48663793123632 SO-115 1 51080U 22002DA 24095.49654196 .00108172 00000-0 11776-2 0 9997 2 51080 97.4143 176.5677 0006576 263.4082 96.6427 15.63051482123906 SO-114 1 51081U 22002DB 24095.45052255 .00120372 00000-0 12277-2 0 9995 2 51081 97.4149 176.7029 0006632 262.7480 97.3026 15.64676636123912 OreSat0 1 52017U 22026K 24095.58955390 .00035309 00000-0 79562-3 0 9993 2 52017 97.5032 107.1165 0017441 121.5171 238.7783 15.43025297114326 Planetum 1 1 52738U 22057G 24095.87663140 .00028059 00000-0 83809-3 0 9991 2 52738 97.5563 219.8103 0004841 53.4850 306.6837 15.34560198103300 Foresail-1 1 52766U 22057AL 24095.82273731 .00014636 00000-0 53047-3 0 9997 2 52766 97.5711 219.8500 0009923 33.5119 326.6746 15.28424902103238 SNUGLITE 2 1 52899U 22065F 24095.34556578 .00001514 00000-0 32181-3 0 9990 2 52899 98.1073 237.9870 0008087 31.9177 328.2512 14.60442531 93487 IO-117 1 53106U 22080B 24092.39201857 -.00000003 00000-0 00000-0 0 9993 2 53106 70.1401 219.1945 0008103 122.4070 237.7374 6.42557363 40333 SelfieSat 1 53951U 22057BC 24095.30048571 .00039716 00000-0 91357-3 0 9991 2 53951 97.5592 221.7728 0004425 31.8037 328.3476 15.42535653103352 FO-118 1 54684U 22167C 24095.84549397 .00019149 00000-0 76003-3 0 9997 2 54684 97.5946 239.2468 0010462 44.4578 315.7497 15.25348054 73102 SSS-2B 1 56184U 23054G 24095.76758403 .00023047 00000-0 67585-3 0 9998 2 56184 97.3785 353.4213 0010335 82.7925 277.4493 15.35136322 54850 CIRBE 1 56188U 23054L 24095.63161645 .00035939 00000-0 83903-3 0 9999 2 56188 97.3701 354.2553 0008722 76.6273 283.5945 15.42081099 54918 INSPIRE-Sat 7 1 56211U 23054AK 24095.24484480 .00033246 00000-0 74191-3 0 9996 2 56211 97.3749 354.9032 0011473 60.2679 299.9709 15.43418416 54919 RoseyCubesat 1 1 56212U 23054AL 24095.78636132 .00046708 00000-0 96607-3 0 9992 2 56212 97.3754 355.8801 0011149 57.7802 302.4526 15.45596549 55025 SO-120 1 56992U 23084BU 24095.53265388 .00017997 00000-0 76471-3 0 9999 2 56992 97.5222 214.4214 0013608 281.0029 78.9676 15.23026534 44954 MRC-100 1 56993U 23084BV 24095.58360973 .00020724 00000-0 84828-3 0 9998 2 56993 97.5224 214.6813 0013425 279.7836 80.1885 15.24261776 44981 UmKA 1 (RS40S) 1 57172U 23091G 24095.89536663 .00004895 00000-0 33527-3 0 9992 2 57172 97.6210 148.7111 0017181 16.1264 344.0507 15.06414870 42454 CubeBel-2 (EU11S) 1 57175U 23091K 24095.86928321 .00005473 00000-0 37150-3 0 9997 2 57175 97.6217 148.5813 0015989 30.2424 329.9723 15.06714325 42449 VERONIKA 1 58261U 23174F 24095.83497344 .00012911 00000-0 64023-3 0 9993 2 58261 97.4652 171.4644 0014021 138.9329 221.2962 15.17773925 22574 KAFASAT 1 58317U 23174BP 24095.78897156 .00015116 00000-0 69889-3 0 9999 2 58317 97.4601 171.7276 0012902 119.4267 240.8257 15.20182220 22597 ENSO 1 58470U 23185J 24095.82056019 .00010714 00000-0 49487-3 0 9992 2 58470 97.4338 163.4481 0014073 172.0756 188.0705 15.20286431 18987 EIRSAT-1 1 58472U 23185L 24095.81362604 .00012935 00000-0 59225-3 0 9991 2 58472 97.4332 163.4445 0013831 173.3493 186.7929 15.20544329 18982 SO-121 1 58567U 23174CY 24095.47337495 .00022637 00000-0 99464-3 0 9995 2 58567 97.4607 171.4040 0014680 132.2023 228.0462 15.21822260 22541 Clark sat-1 (AMBITIOUS) 1 58613U 98067WE 24095.82449581 .00610493 16224-3 16542-2 0 9995 2 58613 51.6252 306.6395 0008668 239.4076 120.6077 15.93593546 17031 SONATE-2 1 59112U 24043Q 24095.58557533 .00008220 00000-0 42401-3 0 9998 2 59112 97.4667 220.3852 0015859 187.6545 172.4448 15.16492579 4648 /EX
